Time,TemperatureF,DewpointF,PressureIn,WindDirection,WindDirectionDegrees,WindSpeedMPH,WindSpeedGustMPH,Humidity,HourlyPrecipIn,Conditions,Clouds,dailyrainin,SoftwareType,DateUTC
2013-05-11 00:00:00,43.0,-99.9,-100.00,SW,236,4.0,6.0,-999,-99.99,,,-99.99,,2013-05-11 06:00:00,
2013-05-11 00:32:00,43.0,-99.9,-100.00,SW,236,4.0,6.0,-999,-99.99,,,-99.99,,2013-05-11 06:32:00,
2013-05-11 00:42:00,43.0,-99.9,-100.00,SW,236,4.0,6.0,-999,-99.99,,,-99.99,,2013-05-11 06:42:00,
2013-05-11 00:53:00,43.0,-99.9,-100.00,SW,236,4.0,6.0,-999,-99.99,,,-99.99,,2013-05-11 06:53:00,
2013-05-11 01:00:00,43.0,-99.9,-100.00,SW,214,7.0,8.0,-999,-99.99,,,-99.99,,2013-05-11 07:00:00,
2013-05-11 01:32:00,43.0,-99.9,-100.00,SW,214,7.0,8.0,-999,-99.99,,,-99.99,,2013-05-11 07:32:00,
2013-05-11 01:42:00,43.0,-99.9,-100.00,SW,214,7.0,8.0,-999,-99.99,,,-99.99,,2013-05-11 07:42:00,
2013-05-11 01:52:00,43.0,-99.9,-100.00,SW,214,7.0,8.0,-999,-99.99,,,-99.99,,2013-05-11 07:52:00,
2013-05-11 02:00:00,41.0,-99.9,-100.00,NE,45,0.0,7.0,-999,-99.99,,,-99.99,,2013-05-11 08:00:00,
2013-05-11 02:32:00,41.0,-99.9,-100.00,NE,45,0.0,7.0,-999,-99.99,,,-99.99,,2013-05-11 08:32:00,
2013-05-11 02:43:00,41.0,-99.9,-100.00,NE,45,0.0,7.0,-999,-99.99,,,-99.99,,2013-05-11 08:43:00,
2013-05-11 02:52:00,41.0,-99.9,-100.00,NE,45,0.0,7.0,-999,-99.99,,,-99.99,,2013-05-11 08:52:00,
2013-05-11 03:00:00,44.0,-99.9,-100.00,SW,223,3.0,4.0,-999,-99.99,,,-99.99,,2013-05-11 09:00:00,
2013-05-11 03:33:00,44.0,-99.9,-100.00,SW,223,3.0,4.0,-999,-99.99,,,-99.99,,2013-05-11 09:33:00,
2013-05-11 03:43:00,44.0,-99.9,-100.00,SW,223,3.0,4.0,-999,-99.99,,,-99.99,,2013-05-11 09:43:00,
2013-05-11 03:53:00,44.0,-99.9,-100.00,SW,223,3.0,4.0,-999,-99.99,,,-99.99,,2013-05-11 09:53:00,
2013-05-11 04:00:00,42.0,-99.9,-100.00,SW,227,5.0,6.0,-999,-99.99,,,-99.99,,2013-05-11 10:00:00,
2013-05-11 04:33:00,42.0,-99.9,-100.00,SW,227,5.0,6.0,-999,-99.99,,,-99.99,,2013-05-11 10:33:00,
2013-05-11 04:42:00,42.0,-99.9,-100.00,SW,227,5.0,6.0,-999,-99.99,,,-99.99,,2013-05-11 10:42:00,
2013-05-11 04:53:00,42.0,-99.9,-100.00,SW,227,5.0,6.0,-999,-99.99,,,-99.99,,2013-05-11 10:53:00,
2013-05-11 05:00:00,39.0,-99.9,-100.00,WSW,242,4.0,5.0,-999,-99.99,,,-99.99,,2013-05-11 11:00:00,
2013-05-11 05:32:00,39.0,-99.9,-100.00,WSW,242,4.0,5.0,-999,-99.99,,,-99.99,,2013-05-11 11:32:00,
2013-05-11 05:42:00,39.0,-99.9,-100.00,WSW,242,4.0,5.0,-999,-99.99,,,-99.99,,2013-05-11 11:42:00,
2013-05-11 05:52:00,39.0,-99.9,-100.00,WSW,242,4.0,5.0,-999,-99.99,,,-99.99,,2013-05-11 11:52:00,
2013-05-11 06:00:00,39.0,-99.9,-100.00,SSW,203,4.0,5.0,-999,-99.99,,,-99.99,,2013-05-11 12:00:00,
2013-05-11 06:32:00,39.0,-99.9,-100.00,SSW,203,4.0,5.0,-999,-99.99,,,-99.99,,2013-05-11 12:32:00,
2013-05-11 06:42:00,39.0,-99.9,-100.00,SSW,203,4.0,5.0,-999,-99.99,,,-99.99,,2013-05-11 12:42:00,
2013-05-11 06:52:00,39.0,-99.9,-100.00,SSW,203,4.0,5.0,-999,-99.99,,,-99.99,,2013-05-11 12:52:00,
2013-05-11 07:00:00,45.0,-99.9,-100.00,SSW,204,6.0,8.0,-999,-99.99,,,-99.99,,2013-05-11 13:00:00,
2013-05-11 07:32:00,45.0,-99.9,-100.00,SSW,204,6.0,8.0,-999,-99.99,,,-99.99,,2013-05-11 13:32:00,
2013-05-11 07:42:00,45.0,-99.9,-100.00,SSW,204,6.0,8.0,-999,-99.99,,,-99.99,,2013-05-11 13:42:00,
2013-05-11 07:52:00,45.0,-99.9,-100.00,SSW,204,6.0,8.0,-999,-99.99,,,-99.99,,2013-05-11 13:52:00,
2013-05-11 08:00:00,52.0,-99.9,-100.00,SSW,201,4.0,5.0,-999,-99.99,,,-99.99,,2013-05-11 14:00:00,
2013-05-11 08:32:00,52.0,-99.9,-100.00,SSW,201,4.0,5.0,-999,-99.99,,,-99.99,,2013-05-11 14:32:00,
2013-05-11 08:42:00,52.0,-99.9,-100.00,SSW,201,4.0,5.0,-999,-99.99,,,-99.99,,2013-05-11 14:42:00,
2013-05-11 08:52:00,52.0,-99.9,-100.00,SSW,201,4.0,5.0,-999,-99.99,,,-99.99,,2013-05-11 14:52:00,
2013-05-11 09:32:00,61.0,-99.9,-100.00,SW,233,0.0,1.0,-999,-99.99,,,-99.99,,2013-05-11 15:32:00,
2013-05-11 10:33:00,65.0,-99.9,-100.00,South,174,1.0,3.0,-999,-99.99,,,-99.99,,2013-05-11 16:33:00,
2013-05-11 12:00:00,68.0,-99.9,-100.00,NE,53,3.0,6.0,-999,-99.99,,,-99.99,,2013-05-11 18:00:00,
2013-05-11 12:32:00,68.0,-99.9,-100.00,NE,53,3.0,6.0,-999,-99.99,,,-99.99,,2013-05-11 18:32:00,
2013-05-11 12:42:00,68.0,-99.9,-100.00,NE,53,3.0,6.0,-999,-99.99,,,-99.99,,2013-05-11 18:42:00,
2013-05-11 12:52:00,68.0,-99.9,-100.00,NE,53,3.0,6.0,-999,-99.99,,,-99.99,,2013-05-11 18:52:00,
2013-05-11 13:00:00,69.0,-99.9,-100.00,NW,324,4.0,8.0,-999,-99.99,,,-99.99,,2013-05-11 19:00:00,
2013-05-11 13:32:00,69.0,-99.9,-100.00,NW,324,4.0,8.0,-999,-99.99,,,-99.99,,2013-05-11 19:32:00,
2013-05-11 13:42:00,69.0,-99.9,-100.00,NW,324,4.0,8.0,-999,-99.99,,,-99.99,,2013-05-11 19:42:00,
2013-05-11 13:53:00,69.0,-99.9,-100.00,NW,324,4.0,8.0,-999,-99.99,,,-99.99,,2013-05-11 19:53:00,
2013-05-11 14:00:00,69.0,-99.9,-100.00,WNW,295,8.0,10.0,-999,-99.99,,,-99.99,,2013-05-11 20:00:00,
2013-05-11 14:32:00,69.0,-99.9,-100.00,WNW,295,8.0,10.0,-999,-99.99,,,-99.99,,2013-05-11 20:32:00,
2013-05-11 14:42:00,69.0,-99.9,-100.00,WNW,295,8.0,10.0,-999,-99.99,,,-99.99,,2013-05-11 20:42:00,
2013-05-11 14:53:00,69.0,-99.9,-100.00,WNW,295,8.0,10.0,-999,-99.99,,,-99.99,,2013-05-11 20:53:00,
2013-05-11 15:00:00,76.0,-99.9,-100.00,SW,228,1.0,4.0,-999,-99.99,,,-99.99,,2013-05-11 21:00:00,
2013-05-11 15:33:00,76.0,-99.9,-100.00,SW,228,1.0,4.0,-999,-99.99,,,-99.99,,2013-05-11 21:33:00,
2013-05-11 15:43:00,76.0,-99.9,-100.00,SW,228,1.0,4.0,-999,-99.99,,,-99.99,,2013-05-11 21:43:00,
2013-05-11 15:53:00,76.0,-99.9,-100.00,SW,228,1.0,4.0,-999,-99.99,,,-99.99,,2013-05-11 21:53:00,
2013-05-11 17:00:00,75.0,-99.9,-100.00,East,98,4.0,5.0,-999,-99.99,,,-99.99,,2013-05-11 23:00:00,
2013-05-11 17:32:00,75.0,-99.9,-100.00,East,98,4.0,5.0,-999,-99.99,,,-99.99,,2013-05-11 23:32:00,
2013-05-11 17:42:00,75.0,-99.9,-100.00,East,98,4.0,5.0,-999,-99.99,,,-99.99,,2013-05-11 23:42:00,
2013-05-11 17:52:00,75.0,-99.9,-100.00,East,98,4.0,5.0,-999,-99.99,,,-99.99,,2013-05-11 23:52:00,
2013-05-11 18:00:00,71.0,-99.9,-100.00,ENE,70,5.0,9.0,-999,-99.99,,,-99.99,,2013-05-12 00:00:00,
2013-05-11 18:32:00,71.0,-99.9,-100.00,ENE,70,5.0,9.0,-999,-99.99,,,-99.99,,2013-05-12 00:32:00,
2013-05-11 18:42:00,71.0,-99.9,-100.00,ENE,70,5.0,9.0,-999,-99.99,,,-99.99,,2013-05-12 00:42:00,
2013-05-11 18:52:00,71.0,-99.9,-100.00,ENE,70,5.0,9.0,-999,-99.99,,,-99.99,,2013-05-12 00:52:00,
2013-05-11 19:00:00,71.0,-99.9,-100.00,East,81,4.0,4.0,-999,-99.99,,,-99.99,,2013-05-12 01:00:00,
2013-05-11 19:32:00,71.0,-99.9,-100.00,East,81,4.0,4.0,-999,-99.99,,,-99.99,,2013-05-12 01:32:00,
2013-05-11 19:42:00,71.0,-99.9,-100.00,East,81,4.0,4.0,-999,-99.99,,,-99.99,,2013-05-12 01:42:00,
2013-05-11 19:52:00,71.0,-99.9,-100.00,East,81,4.0,4.0,-999,-99.99,,,-99.99,,2013-05-12 01:52:00,
2013-05-11 20:00:00,65.0,-99.9,-100.00,SW,227,5.0,6.0,-999,-99.99,,,-99.99,,2013-05-12 02:00:00,
2013-05-11 20:32:00,65.0,-99.9,-100.00,SW,227,5.0,6.0,-999,-99.99,,,-99.99,,2013-05-12 02:32:00,
2013-05-11 20:42:00,65.0,-99.9,-100.00,SW,227,5.0,6.0,-999,-99.99,,,-99.99,,2013-05-12 02:42:00,
2013-05-11 20:52:00,65.0,-99.9,-100.00,SW,227,5.0,6.0,-999,-99.99,,,-99.99,,2013-05-12 02:52:00,
2013-05-11 21:00:00,-999.0,-99.9,-100.00,SW,222,9.0,11.0,-999,-99.99,,,-99.99,,2013-05-12 03:00:00,
2013-05-11 21:33:00,61.0,-99.9,-100.00,SW,222,9.0,11.0,-999,-99.99,,,-99.99,,2013-05-12 03:33:00,
2013-05-11 21:43:00,61.0,-99.9,-100.00,SW,222,9.0,11.0,-999,-99.99,,,-99.99,,2013-05-12 03:43:00,
2013-05-11 21:53:00,61.0,-99.9,-100.00,SW,222,9.0,11.0,-999,-99.99,,,-99.99,,2013-05-12 03:53:00,
2013-05-11 22:00:00,61.0,-99.9,-100.00,SW,228,7.0,10.0,-999,-99.99,,,-99.99,,2013-05-12 04:00:00,
2013-05-11 22:33:00,61.0,-99.9,-100.00,SW,228,7.0,10.0,-999,-99.99,,,-99.99,,2013-05-12 04:33:00,
2013-05-11 22:43:00,61.0,-99.9,-100.00,SW,228,7.0,10.0,-999,-99.99,,,-99.99,,2013-05-12 04:43:00,
2013-05-11 22:52:00,61.0,-99.9,-100.00,SW,228,7.0,10.0,-999,-99.99,,,-99.99,,2013-05-12 04:52:00,
2013-05-11 23:00:00,61.0,-99.9,-100.00,SW,223,6.0,7.0,-999,-99.99,,,-99.99,,2013-05-12 05:00:00,
2013-05-11 23:32:00,61.0,-99.9,-100.00,SW,223,6.0,7.0,-999,-99.99,,,-99.99,,2013-05-12 05:32:00,
2013-05-11 23:42:00,61.0,-99.9,-100.00,SW,223,6.0,7.0,-999,-99.99,,,-99.99,,2013-05-12 05:42:00,
2013-05-11 23:52:00,61.0,-99.9,-100.00,SW,223,6.0,7.0,-999,-99.99,,,-99.99,,2013-05-12 05:52:00,